Regional Weather Roundup
Issued by NWS

Home | Current Version | Previous Version | Graphics & Text | Print | Product List | Glossary On
Versions: 1 2 3 4 5 6 7 8 9 10 11 12 13 14 15 16 17 18 19 20 21 22 23 24 25 26 27 28 29 30 31 32 33 34 35 36 37 38 39 40 41 42 43 44 45 46 47 48 49 50
000
ASUS45 KBOU 170907
RWRCO

WEATHER ROUNDUP FOR COLORADO
NATIONAL WEATHER SERVICE DENVER/BOULDER CO
200 AM MST WED DEC 17 2014

NOTE: "FAIR" INDICATES FEW OR NO CLOUDS BELOW 12000 FEET WITH NO
SIGNIFICANT WEATHER AND/OR OBSTRUCTIONS TO VISIBILITY.

COZ001>005-013-030-031-171000-
...NORTHWEST COLORADO...

CITY           SKY/WX    TMP DP  RH WIND       PRES   REMARKS
CRAIG          CLOUDY    20  18  92 NW3       30.04F
HAYDEN         MOCLDY    21  18  86 SE3       30.02F
MEEKER         LGT SNOW  25  22  88 CALM      30.04S FOG
MOUNT WERNER   NOT AVBL
STEAMBOAT SPGS CLOUDY    20  18  93 W3        30.02F
WALDEN         PTCLDY    10   7  85 N3        30.02S
$$

COZ006>008-011-171000-
...WEST CENTRAL VALLEYS...

CITY           SKY/WX    TMP DP  RH WIND       PRES   REMARKS
GRAND JUNCTION CLOUDY    31  28  89 E3        30.03F
MONTROSE       CLOUDY    31  27  85 E7        30.05F WCI  24
EAGLE          CLOUDY    16  12  86 CALM      30.11F
RIFLE          CLOUDY    28  24  85 CALM      30.06R
DELTA          CLOUDY    32  27  81 CALM      30.06R
NUCLA          CLOUDY    32  28  86 SE5       30.08R WCI  27
$$

COZ017>023-064>068-171000-
...SOUTHWEST COLORADO...

CITY           SKY/WX    TMP DP  RH WIND       PRES   REMARKS
DURANGO        CLOUDY    30  26  85 S3        30.05F
CORTEZ         PTCLDY    33  26  75 N8        30.01F WCI  26
PAGOSA SPRINGS CLOUDY    27  25  92 CALM      30.07S
TELLURIDE      CLOUDY    32  20  62 CALM      30.06S
WOLF CREEK PAS CLOUDY    16  12  86 MISG      30.07F
$$

COZ009-010-012-014-032>034-037-058>063-171000-
...CENTRAL COLORADO...

CITY           SKY/WX    TMP DP  RH WIND       PRES   REMARKS
ASPEN          CLOUDY    20  16  84 S5        30.02S WCI  13
BUENA VISTA    PTCLDY    17  12  80 W3        30.05S
COPPER MTN     PTCLDY    21  10  63 S6        30.05S WCI  14
BERTHOUD PASS  FAIR      14   9  79 MISG      30.02F
COTTONWOOD PAS PTCLDY    28  16  59 CALM      30.04S
GUNNISON       MOCLDY    12   9  85 CALM      30.10S
KREMMLING      CLOUDY   N/A N/A N/A CALM      30.09F
LEADVILLE      PTCLDY     9   6  88 NE8       30.01F WCI  -3
MONARCH PASS   MOCLDY    18  14  86 MISG      30.14S
SALIDA         PTCLDY    28  15  57 NW7       30.10F WCI  21
SUNLIGHT       LGT SNOW  23  21  93 CALM      30.06S
WILKERSON PASS MOCLDY    19  14  79 W5        30.06F WCI  13
$$

COZ069>075-171000-
...SAN LUIS VALLEY/SANGRE DE CRISTO MOUNTAINS...

CITY           SKY/WX    TMP DP  RH WIND       PRES   REMARKS
ALAMOSA        CLOUDY    19  14  81 N6        30.06F WCI  11
LA VETA PASS   MOCLDY    19  14  79 SW8       30.03S WCI   9
SAGUACHE       MOCLDY    19  12  73 NW10      30.07F WCI   8
$$

COZ035-036-038>040-171000-
...NORTHERN COLORADO FRONT RANGE...

CITY           SKY/WX    TMP DP  RH WIND       PRES   REMARKS
DENVER INTL AP PTCLDY    22  18  85 SW5       29.99F WCI  16
DMNS CITY PARK   N/A     24  19  82 SW2       29.99F
AURORA         PTCLDY    21  18  88 S7        29.99F WCI  13
FRONT RANGE AP PTCLDY    27  21  80 W5        29.99F WCI  21
ERIE MUNI ARPT   N/A     18  16  95 CALM      30.00F
BOULDER MUN AP MOCLDY    23  21  93 NW5       29.99F WCI  17
CENTENNIAL     MOCLDY    19  15  84 SE3       29.98F
BROOMFIELD     MOCLDY    27  23  86 CALM      29.98F
FORT COLLINS   PTCLDY    19  18  93 CALM      30.02S
LONGMONT       PTCLDY    21  19  90 SW3       30.03S
$$

COZ041-046-047-076>085-087-088-171000-
...PIKES PEAK/PALMER DIVIDE AND SOUTHERN FOOTHILLS...

CITY           SKY/WX    TMP DP  RH WIND       PRES   REMARKS
COLO. SPRINGS  MOCLDY    23  16  74 N7        29.98F WCI  15
A. F. ACADEMY  MOCLDY    24  17  75 N6        29.98F WCI  16
ELLICOTT       NOT AVBL
FALCON         MOCLDY    26  17  67 NW5       29.99S WCI  20
FORT CARSON    MOCLDY    20  16  83 N9        29.97F WCI  10
LIMON          PTCLDY    10   8  92 NW5       30.01S WCI   2
MONUMENT HILL  MOCLDY    30  21  69 W7        29.98R WCI  23
TRINIDAD       PTCLDY    26  21  81 NE5       29.98S WCI  20
$$

COZ042>045-048>051-090-091-171000-
...NORTHEAST COLORADO...

CITY           SKY/WX    TMP DP  RH WIND       PRES   REMARKS
GREELEY ARPT   CLEAR     16   9  73 CALM      30.01F
AKRON          CLOUDY    15  14  95 SE8       30.03S FOG     WCI   4
BURLINGTON     CLOUDY    22  20  92 SE9       30.07R WCI  12
WRAY           CLOUDY    21  21 100 E7        30.11F WCI  13
STERLING       MOCLDY    23  21  93 SW3       30.07R
HOLYOKE        NOT AVBL
FORT MORGAN    FOG       13  11  90 CALM      30.05R VSB 1/2
$$

COZ086-089-092>099-171000-
...SOUTHEAST COLORADO...

CITY           SKY/WX    TMP DP  RH WIND       PRES   REMARKS
PUEBLO         MOCLDY    18  14  84 SW3       30.02
LA JUNTA       MOCLDY    24  21  88 W8        30.02F WCI  15
LAMAR          PTCLDY    23  22  96 W6        30.01F WCI  16
SPRINGFIELD      N/A     30  23  75 NW5       30.01S WCI  25
$$



USA.gov is the U.S. government's official web portal to all federal, state and local government web resources and services.